TimeEDT,TemperatureF,Dew PointF,Humidity,Sea Level PressureIn,VisibilityMPH,Wind Direction,Wind SpeedMPH,Gust SpeedMPH,PrecipitationIn,Events,Conditions,WindDirDegrees,DateUTC
12:58 AM,58.8,52.7,80,29.77,10.0,West,4.6,-,N/A,,Clear,260,2013-06-15 04:58:00
1:58 AM,57.2,53.4,87,29.77,10.0,West,4.6,-,N/A,,Clear,270,2013-06-15 05:58:00
2:58 AM,57.7,52.0,81,29.79,10.0,West,5.8,-,N/A,,Clear,280,2013-06-15 06:58:00
3:58 AM,55.4,52.2,89,29.80,10.0,NW,5.8,-,N/A,,Clear,320,2013-06-15 07:58:00
4:58 AM,55.9,50.0,80,29.82,10.0,WNW,5.8,-,N/A,,Clear,290,2013-06-15 08:58:00
5:58 AM,56.3,49.6,78,29.86,10.0,Variable,1.2,-,N/A,,Clear,0,2013-06-15 09:58:00
6:58 AM,60.4,49.1,66,29.88,10.0,Calm,Calm,-,N/A,,Clear,0,2013-06-15 10:58:00
7:58 AM,64.0,49.3,59,29.88,10.0,NW,8.1,-,N/A,,Clear,310,2013-06-15 11:58:00
8:58 AM,68.0,48.2,49,29.90,10.0,NW,9.2,-,N/A,,Clear,310,2013-06-15 12:58:00
9:58 AM,70.7,44.8,39,29.90,10.0,NW,8.1,-,N/A,,Clear,310,2013-06-15 13:58:00
10:58 AM,72.1,45.3,38,29.90,10.0,West,10.4,-,N/A,,Clear,280,2013-06-15 14:58:00
11:58 AM,73.8,43.2,33,29.90,10.0,WSW,8.1,-,N/A,,Clear,240,2013-06-15 15:58:00
12:58 PM,75.2,41.7,30,29.90,10.0,WSW,9.2,17.3,N/A,,Partly Cloudy,250,2013-06-15 16:58:00
1:58 PM,75.9,41.5,29,29.89,10.0,WSW,10.4,-,N/A,,Partly Cloudy,250,2013-06-15 17:58:00
2:58 PM,77.0,40.6,27,29.88,10.0,WNW,11.5,-,N/A,,Partly Cloudy,290,2013-06-15 18:58:00
3:58 PM,75.4,42.4,31,29.86,10.0,Variable,6.9,-,N/A,,Scattered Clouds,0,2013-06-15 19:58:00
4:58 PM,77.2,40.6,27,29.86,10.0,West,6.9,-,N/A,,Scattered Clouds,270,2013-06-15 20:58:00
5:58 PM,76.8,39.6,26,29.86,10.0,WNW,9.2,-,N/A,,Partly Cloudy,290,2013-06-15 21:58:00
6:58 PM,74.8,41.0,30,29.87,10.0,WNW,5.8,-,N/A,,Partly Cloudy,290,2013-06-15 22:58:00
7:58 PM,72.3,42.1,34,29.87,10.0,SW,2.3,-,N/A,,Partly Cloudy,230,2013-06-15 23:58:00
8:58 PM,66.0,48.4,53,29.89,10.0,South,2.3,-,N/A,,Partly Cloudy,190,2013-06-16 00:58:00
9:58 PM,60.6,48.6,64,29.90,10.0,Calm,Calm,-,N/A,,Partly Cloudy,0,2013-06-16 01:58:00
10:58 PM,59.4,49.5,70,29.91,10.0,Calm,Calm,-,N/A,,Scattered Clouds,0,2013-06-16 02:58:00
11:58 PM,55.8,51.1,84,29.92,10.0,SW,4.6,-,N/A,,Scattered Clouds,230,2013-06-16 03:58:00